Year,Month,Day,Hour,Minute,Value (Times are PST for temperature in C)
2017,08,23,00,00,19.60
2017,08,23,00,01,19.60
2017,08,23,00,02,19.60
2017,08,23,00,03,19.50
2017,08,23,00,04,19.50
2017,08,23,00,05,19.40
2017,08,23,00,06,19.40
2017,08,23,00,07,19.30
2017,08,23,00,08,19.30
2017,08,23,00,09,19.20
2017,08,23,00,10,19.20
2017,08,23,00,11,19.20
2017,08,23,00,12,19.20
2017,08,23,00,13,19.20
2017,08,23,00,14,19.10
2017,08,23,00,15,19.10
2017,08,23,00,16,19.10
2017,08,23,00,17,19.10
2017,08,23,00,18,19.10
2017,08,23,00,19,19.20
2017,08,23,00,20,19.20
2017,08,23,00,21,19.20
2017,08,23,00,22,19.20
2017,08,23,00,23,19.20
2017,08,23,00,24,19.20
2017,08,23,00,25,19.20
2017,08,23,00,26,19.20
2017,08,23,00,27,19.20
2017,08,23,00,28,19.20
2017,08,23,00,29,19.20
2017,08,23,00,30,19.20
2017,08,23,00,31,19.20
2017,08,23,00,32,19.20
2017,08,23,00,33,19.20
2017,08,23,00,34,19.20
2017,08,23,00,35,19.10
2017,08,23,00,36,19.10
2017,08,23,00,37,19.10
2017,08,23,00,38,19.10
2017,08,23,00,39,19.10
2017,08,23,00,40,19.10
2017,08,23,00,41,19.10
2017,08,23,00,42,19.10
2017,08,23,00,43,19.10
2017,08,23,00,44,19.20
2017,08,23,00,45,19.20
2017,08,23,00,46,19.20
2017,08,23,00,47,19.20
2017,08,23,00,48,19.20
2017,08,23,00,49,19.20
2017,08,23,00,50,19.20
2017,08,23,00,51,19.20
2017,08,23,00,52,19.20
2017,08,23,00,53,19.20
2017,08,23,00,54,19.20
2017,08,23,00,55,19.20
2017,08,23,00,56,19.20
2017,08,23,00,57,19.20
2017,08,23,00,58,19.20
2017,08,23,00,59,19.20
2017,08,23,01,00,19.20
2017,08,23,01,01,19.20
2017,08,23,01,02,19.20
2017,08,23,01,03,19.30
2017,08,23,01,04,19.30
2017,08,23,01,05,19.30
2017,08,23,01,06,19.40
2017,08,23,01,07,19.40
2017,08,23,01,08,19.40
2017,08,23,01,09,19.40
2017,08,23,01,10,19.40
2017,08,23,01,11,19.40
2017,08,23,01,12,19.50
2017,08,23,01,13,19.50
2017,08,23,01,14,19.50
2017,08,23,01,15,19.60
2017,08,23,01,16,19.60
2017,08,23,01,17,19.60
2017,08,23,01,18,19.60
2017,08,23,01,19,19.70
2017,08,23,01,20,19.70
2017,08,23,01,21,19.70
2017,08,23,01,22,19.70
2017,08,23,01,23,19.70
2017,08,23,01,24,19.70
2017,08,23,01,25,19.70
2017,08,23,01,26,19.80
2017,08,23,01,27,19.80
2017,08,23,01,28,19.80
2017,08,23,01,29,19.80
2017,08,23,01,30,19.90
2017,08,23,01,31,19.90
2017,08,23,01,32,19.90
2017,08,23,01,33,19.90
2017,08,23,01,34,19.90
2017,08,23,01,35,19.90
2017,08,23,01,36,19.90
2017,08,23,01,37,19.90
2017,08,23,01,38,19.90
2017,08,23,01,39,19.90
2017,08,23,01,40,19.90
2017,08,23,01,41,19.80
2017,08,23,01,42,19.80
2017,08,23,01,43,19.80
2017,08,23,01,44,19.80
2017,08,23,01,45,19.80
2017,08,23,01,46,19.80
2017,08,23,01,47,19.80
2017,08,23,01,48,19.70
2017,08,23,01,49,19.70
2017,08,23,01,50,19.70
2017,08,23,01,51,19.70
2017,08,23,01,52,19.70
2017,08,23,01,53,19.60
2017,08,23,01,54,19.60
2017,08,23,01,55,19.50
2017,08,23,01,56,19.50
2017,08,23,01,57,19.40
2017,08,23,01,58,19.30
2017,08,23,01,59,19.30
2017,08,23,02,00,19.30
2017,08,23,02,01,19.20
2017,08,23,02,02,19.20
2017,08,23,02,03,19.10
2017,08,23,02,04,19.00
2017,08,23,02,05,19.00
2017,08,23,02,06,18.90
2017,08,23,02,07,18.90
2017,08,23,02,08,18.80
2017,08,23,02,09,18.80
2017,08,23,02,10,18.70
2017,08,23,02,11,18.70
2017,08,23,02,12,18.60
2017,08,23,02,13,18.60
2017,08,23,02,14,18.60
2017,08,23,02,15,18.50
2017,08,23,02,16,18.40
2017,08,23,02,17,18.40
2017,08,23,02,18,18.30
2017,08,23,02,19,18.30
2017,08,23,02,20,18.30
2017,08,23,02,21,18.30
2017,08,23,02,22,18.20
2017,08,23,02,23,18.20
2017,08,23,02,24,18.20
2017,08,23,02,25,18.10
2017,08,23,02,26,18.10
2017,08,23,02,27,18.10
2017,08,23,02,28,18.10
2017,08,23,02,29,18.00
2017,08,23,02,30,18.00
2017,08,23,02,31,17.90
2017,08,23,02,32,17.90
2017,08,23,02,33,17.90
2017,08,23,02,34,17.80
2017,08,23,02,35,17.80
2017,08,23,02,36,17.80
2017,08,23,02,37,17.80
2017,08,23,02,38,17.80
2017,08,23,02,39,17.70
2017,08,23,02,40,17.70
2017,08,23,02,41,17.70
2017,08,23,02,42,17.70
2017,08,23,02,43,17.70
2017,08,23,02,44,17.60
2017,08,23,02,45,17.60
2017,08,23,02,46,17.60
2017,08,23,02,47,17.60
2017,08,23,02,48,17.60
2017,08,23,02,49,17.60
2017,08,23,02,50,17.60
2017,08,23,02,51,17.60
2017,08,23,02,52,17.60
2017,08,23,02,53,17.60
2017,08,23,02,54,17.60
2017,08,23,02,55,17.60
2017,08,23,02,56,17.60
2017,08,23,02,57,17.60
2017,08,23,02,58,17.60
2017,08,23,02,59,17.60
2017,08,23,03,00,17.60
2017,08,23,03,01,17.60
2017,08,23,03,02,17.60
2017,08,23,03,03,17.60
2017,08,23,03,04,17.60
2017,08,23,03,05,17.60
2017,08,23,03,06,17.50
2017,08,23,03,07,17.50
2017,08,23,03,08,17.50
2017,08,23,03,09,17.40
2017,08,23,03,10,17.40
2017,08,23,03,11,17.40
2017,08,23,03,12,17.40
2017,08,23,03,13,17.40
2017,08,23,03,14,17.40
2017,08,23,03,15,17.40
2017,08,23,03,16,17.40
2017,08,23,03,17,17.40
2017,08,23,03,18,17.40
2017,08,23,03,19,17.40
2017,08,23,03,20,17.40
2017,08,23,03,21,17.40
2017,08,23,03,22,17.40
2017,08,23,03,23,17.40
2017,08,23,03,24,17.40
2017,08,23,03,25,17.40
2017,08,23,03,26,17.40
2017,08,23,03,27,17.30
2017,08,23,03,28,17.30
2017,08,23,03,29,17.30
2017,08,23,03,30,17.30
2017,08,23,03,31,17.30
2017,08,23,03,32,17.30
2017,08,23,03,33,17.20
2017,08,23,03,34,17.20
2017,08,23,03,35,17.20
2017,08,23,03,36,17.20
2017,08,23,03,37,17.20
2017,08,23,03,38,17.20
2017,08,23,03,39,17.20
2017,08,23,03,40,17.20
2017,08,23,03,41,17.20
2017,08,23,03,42,17.10
2017,08,23,03,43,17.10
2017,08,23,03,44,17.10
2017,08,23,03,45,17.10
2017,08,23,03,46,17.10
2017,08,23,03,47,17.10
2017,08,23,03,48,17.10
2017,08,23,03,49,17.10
2017,08,23,03,50,17.10
2017,08,23,03,51,17.00
2017,08,23,03,52,17.00
2017,08,23,03,53,17.00
2017,08,23,03,54,17.00
2017,08,23,03,55,17.00
2017,08,23,03,56,16.90
2017,08,23,03,57,16.90
2017,08,23,03,58,16.90
2017,08,23,03,59,16.90
2017,08,23,04,00,16.90
2017,08,23,04,01,16.90
2017,08,23,04,02,16.80
2017,08,23,04,03,16.80
2017,08,23,04,04,16.80
2017,08,23,04,05,16.80
2017,08,23,04,06,16.80
2017,08,23,04,07,16.80
2017,08,23,04,08,16.80
2017,08,23,04,09,16.80
2017,08,23,04,10,16.80
2017,08,23,04,11,16.80
2017,08,23,04,12,16.80
2017,08,23,04,13,16.80
2017,08,23,04,14,16.80
2017,08,23,04,15,16.80
2017,08,23,04,16,16.80
2017,08,23,04,17,16.80
2017,08,23,04,18,16.80
2017,08,23,04,19,16.70
2017,08,23,04,20,16.70
2017,08,23,04,21,16.70
2017,08,23,04,22,16.70
2017,08,23,04,23,16.70
2017,08,23,04,24,16.70
2017,08,23,04,25,16.70
2017,08,23,04,26,16.60
2017,08,23,04,27,16.60
2017,08,23,04,28,16.60
2017,08,23,04,29,16.60
2017,08,23,04,30,16.60
2017,08,23,04,31,16.60
2017,08,23,04,32,16.60
2017,08,23,04,33,16.60
2017,08,23,04,34,16.60
2017,08,23,04,35,16.60
2017,08,23,04,36,16.60
2017,08,23,04,37,16.50
2017,08,23,04,38,16.50
2017,08,23,04,39,16.50
2017,08,23,04,40,16.50
2017,08,23,04,41,16.40
2017,08,23,04,42,16.40
2017,08,23,04,43,16.40
2017,08,23,04,44,16.40
2017,08,23,04,45,16.40
2017,08,23,04,46,16.40
2017,08,23,04,47,16.30
2017,08,23,04,48,16.30
2017,08,23,04,49,16.30
2017,08,23,04,50,16.30
2017,08,23,04,51,16.30
2017,08,23,04,52,16.20
2017,08,23,04,53,16.20
2017,08,23,04,54,16.20
2017,08,23,04,55,16.20
2017,08,23,04,56,16.20
2017,08,23,04,57,16.20
2017,08,23,04,58,16.20
2017,08,23,04,59,16.20
2017,08,23,05,00,16.20
2017,08,23,05,01,16.20
2017,08,23,05,02,16.20
2017,08,23,05,03,16.20
2017,08,23,05,04,16.20
2017,08,23,05,05,16.20
2017,08,23,05,06,16.20
2017,08,23,05,07,16.10
2017,08,23,05,08,16.10
2017,08,23,05,09,16.10
2017,08,23,05,10,16.10
2017,08,23,05,11,16.10
2017,08,23,05,12,16.10
2017,08,23,05,13,16.10
2017,08,23,05,14,16.10
2017,08,23,05,15,16.10
2017,08,23,05,16,16.10
2017,08,23,05,17,16.00
2017,08,23,05,18,16.00
2017,08,23,05,19,16.00
2017,08,23,05,20,16.00
2017,08,23,05,21,15.90
2017,08,23,05,22,15.90
2017,08,23,05,23,15.90
2017,08,23,05,24,15.90
2017,08,23,05,25,15.90
2017,08,23,05,26,15.90
2017,08,23,05,27,15.90
2017,08,23,05,28,15.90
2017,08,23,05,29,15.90
2017,08,23,05,30,15.90
2017,08,23,05,31,15.90
2017,08,23,05,32,15.90
2017,08,23,05,33,15.90
2017,08,23,05,34,15.90
2017,08,23,05,35,15.90
2017,08,23,05,36,15.90
2017,08,23,05,37,15.90
2017,08,23,05,38,15.90
2017,08,23,05,39,15.90
2017,08,23,05,40,15.90
2017,08,23,05,41,15.90
2017,08,23,05,42,15.90
2017,08,23,05,43,15.90
2017,08,23,05,44,15.90
2017,08,23,05,45,15.90
2017,08,23,05,46,15.80
2017,08,23,05,47,15.80
2017,08,23,05,48,15.80
2017,08,23,05,49,15.80
2017,08,23,05,50,15.80
2017,08,23,05,51,15.80
2017,08,23,05,52,15.80
2017,08,23,05,53,15.80
2017,08,23,05,54,15.80
2017,08,23,05,55,15.80
2017,08,23,05,56,15.80
2017,08,23,05,57,15.80
2017,08,23,05,58,15.80
2017,08,23,05,59,15.80
2017,08,23,06,00,15.80
2017,08,23,06,01,15.80
2017,08,23,06,02,15.80
2017,08,23,06,03,15.80
2017,08,23,06,04,15.80
2017,08,23,06,05,15.80
2017,08,23,06,06,15.80
2017,08,23,06,07,15.80
2017,08,23,06,08,15.80
2017,08,23,06,09,15.80
2017,08,23,06,10,15.80
2017,08,23,06,11,15.80
2017,08,23,06,12,15.70
2017,08,23,06,13,15.70
2017,08,23,06,14,15.70
2017,08,23,06,15,15.70
2017,08,23,06,16,15.70
2017,08,23,06,17,15.70
2017,08,23,06,18,15.70
2017,08,23,06,19,15.70
2017,08,23,06,20,15.70
2017,08,23,06,21,15.70
2017,08,23,06,22,15.70
2017,08,23,06,23,15.70
2017,08,23,06,24,15.70
2017,08,23,06,25,15.70
2017,08,23,06,26,15.70
2017,08,23,06,27,15.70
2017,08,23,06,28,15.70
2017,08,23,06,29,15.70
2017,08,23,06,30,15.70
2017,08,23,06,31,15.70
2017,08,23,06,32,15.70
2017,08,23,06,33,15.70
2017,08,23,06,34,15.70
2017,08,23,06,35,15.70
2017,08,23,06,36,15.70
2017,08,23,06,37,15.70
2017,08,23,06,38,15.70
2017,08,23,06,39,15.70
2017,08,23,06,40,15.80
2017,08,23,06,41,15.80
2017,08,23,06,42,15.80
2017,08,23,06,43,15.80
2017,08,23,06,44,15.80
2017,08,23,06,45,15.80
2017,08,23,06,46,15.80
2017,08,23,06,47,15.90
2017,08,23,06,48,15.90
2017,08,23,06,49,15.90
2017,08,23,06,50,15.90
2017,08,23,06,51,15.90
2017,08,23,06,52,15.90
2017,08,23,06,53,15.90
2017,08,23,06,54,15.90
2017,08,23,06,55,16.00
2017,08,23,06,56,16.00
2017,08,23,06,57,16.00
2017,08,23,06,58,16.00
2017,08,23,06,59,16.00
2017,08,23,07,00,16.00
2017,08,23,07,01,16.00
2017,08,23,07,02,16.10
2017,08,23,07,03,16.00
2017,08,23,07,04,16.10
2017,08,23,07,05,16.00
2017,08,23,07,06,16.10
2017,08,23,07,07,16.10
2017,08,23,07,08,16.10
2017,08,23,07,09,16.10
2017,08,23,07,10,16.10
2017,08,23,07,11,16.10
2017,08,23,07,12,16.10
2017,08,23,07,13,16.20
2017,08,23,07,14,16.20
2017,08,23,07,15,16.20
2017,08,23,07,16,16.30
2017,08,23,07,17,16.30
2017,08,23,07,18,16.30
2017,08,23,07,19,16.40
2017,08,23,07,20,16.40
2017,08,23,07,21,16.50
2017,08,23,07,22,16.60
2017,08,23,07,23,16.60
2017,08,23,07,24,16.70
2017,08,23,07,25,16.70
2017,08,23,07,26,16.80
2017,08,23,07,27,16.80
2017,08,23,07,28,16.80
2017,08,23,07,29,16.90
2017,08,23,07,30,16.90
2017,08,23,07,31,16.90
2017,08,23,07,32,16.90
2017,08,23,07,33,16.90
2017,08,23,07,34,16.90
2017,08,23,07,35,16.90
2017,08,23,07,36,17.00
2017,08,23,07,37,17.00
2017,08,23,07,38,17.00
2017,08,23,07,39,17.00
2017,08,23,07,40,17.00
2017,08,23,07,41,17.10
2017,08,23,07,42,17.10
2017,08,23,07,43,17.10
2017,08,23,07,44,17.10
2017,08,23,07,45,17.10
2017,08,23,07,46,17.10
2017,08,23,07,47,17.20
2017,08,23,07,48,17.20
2017,08,23,07,49,17.20
2017,08,23,07,50,17.20
2017,08,23,07,51,17.20
2017,08,23,07,52,17.20
2017,08,23,07,53,17.20
2017,08,23,07,54,17.20
2017,08,23,07,55,17.20
2017,08,23,07,56,17.20
2017,08,23,07,57,17.20
2017,08,23,07,58,17.20
2017,08,23,07,59,17.30
2017,08,23,08,00,17.20
2017,08,23,08,01,17.20
2017,08,23,08,02,17.20
2017,08,23,08,03,17.20
2017,08,23,08,04,17.20
2017,08,23,08,05,17.20
2017,08,23,08,06,17.20
2017,08,23,08,07,17.20
2017,08,23,08,08,17.10
2017,08,23,08,09,17.10
2017,08,23,08,10,17.10
2017,08,23,08,11,17.10
2017,08,23,08,12,17.10
2017,08,23,08,13,17.10
2017,08,23,08,14,17.10
2017,08,23,08,15,17.10
2017,08,23,08,16,17.10
2017,08,23,08,17,17.10
2017,08,23,08,18,17.10
2017,08,23,08,19,17.10
2017,08,23,08,20,17.10
2017,08,23,08,21,17.00
2017,08,23,08,22,17.00
2017,08,23,08,23,17.00
2017,08,23,08,24,17.00
2017,08,23,08,25,17.00
2017,08,23,08,26,17.00
2017,08,23,08,27,16.90
2017,08,23,08,28,16.90
2017,08,23,08,29,16.90
2017,08,23,08,30,17.00
2017,08,23,08,31,17.00
2017,08,23,08,32,17.00
2017,08,23,08,33,17.00
2017,08,23,08,34,17.00
2017,08,23,08,35,17.00
2017,08,23,08,36,17.10
2017,08,23,08,37,17.10
2017,08,23,08,38,17.10
2017,08,23,08,39,17.20
2017,08,23,08,40,17.20
2017,08,23,08,41,17.30
2017,08,23,08,42,17.30
2017,08,23,08,43,17.30
2017,08,23,08,44,17.30
2017,08,23,08,45,17.40
2017,08,23,08,46,17.40
2017,08,23,08,47,17.40
2017,08,23,08,48,17.40
2017,08,23,08,49,17.40
2017,08,23,08,50,17.40
2017,08,23,08,51,17.40
2017,08,23,08,52,17.40
2017,08,23,08,53,17.50
2017,08,23,08,54,17.50
2017,08,23,08,55,17.60
2017,08,23,08,56,17.60
2017,08,23,08,57,17.60
2017,08,23,08,58,17.70
2017,08,23,08,59,17.70
2017,08,23,09,00,17.70
2017,08,23,09,01,17.70
2017,08,23,09,02,17.70
2017,08,23,09,03,17.70
2017,08,23,09,04,17.70
2017,08,23,09,05,17.70
2017,08,23,09,06,17.80
2017,08,23,09,07,17.80
2017,08,23,09,08,17.80
2017,08,23,09,09,17.90
2017,08,23,09,10,17.90
2017,08,23,09,11,18.00
2017,08,23,09,12,18.00
2017,08,23,09,13,18.10
2017,08,23,09,14,18.10
2017,08,23,09,15,18.20
2017,08,23,09,16,18.30
2017,08,23,09,17,18.30
2017,08,23,09,18,18.40
2017,08,23,09,19,18.40
2017,08,23,09,20,18.50
2017,08,23,09,21,18.50
2017,08,23,09,22,18.60
2017,08,23,09,23,18.60
2017,08,23,09,24,18.70
2017,08,23,09,25,18.70
2017,08,23,09,26,18.70
2017,08,23,09,27,18.80
2017,08,23,09,28,18.80
2017,08,23,09,29,18.80
2017,08,23,09,30,18.80
2017,08,23,09,31,18.80
2017,08,23,09,32,18.80
2017,08,23,09,33,18.80
2017,08,23,09,34,18.80
2017,08,23,09,35,18.70
2017,08,23,09,36,18.70
2017,08,23,09,37,18.60
2017,08,23,09,38,18.60
2017,08,23,09,39,18.70
2017,08,23,09,40,18.70
2017,08,23,09,41,18.70
2017,08,23,09,42,18.70
2017,08,23,09,43,18.70
2017,08,23,09,44,18.80
2017,08,23,09,45,18.80
2017,08,23,09,46,18.80
2017,08,23,09,47,18.80
2017,08,23,09,48,18.80
2017,08,23,09,49,18.80
2017,08,23,09,50,18.80
2017,08,23,09,51,18.80
2017,08,23,09,52,18.80
2017,08,23,09,53,18.80
2017,08,23,09,54,18.90
2017,08,23,09,55,18.90
2017,08,23,09,56,18.80
2017,08,23,09,57,18.80
2017,08,23,09,58,18.70
2017,08,23,09,59,18.70
2017,08,23,10,00,18.70
2017,08,23,10,01,18.80
2017,08,23,10,02,18.80
2017,08,23,10,03,19.00
2017,08,23,10,04,19.00
2017,08,23,10,05,19.10
2017,08,23,10,06,19.20
2017,08,23,10,07,19.10
2017,08,23,10,08,19.10
2017,08,23,10,09,19.00
2017,08,23,10,10,19.00
2017,08,23,10,11,18.90
2017,08,23,10,12,18.90
2017,08,23,10,13,18.90
2017,08,23,10,14,18.90
2017,08,23,10,15,18.90
2017,08,23,10,16,18.90
2017,08,23,10,17,18.90
2017,08,23,10,18,19.00
2017,08,23,10,19,19.10
2017,08,23,10,20,19.10
2017,08,23,10,21,19.20
2017,08,23,10,22,19.30
2017,08,23,10,23,19.20
2017,08,23,10,24,19.20
2017,08,23,10,25,19.10
2017,08,23,10,26,19.10
2017,08,23,10,27,19.10
2017,08,23,10,28,19.10
2017,08,23,10,29,19.10
2017,08,23,10,30,19.20
2017,08,23,10,31,19.30
2017,08,23,10,32,19.40
2017,08,23,10,33,19.50
2017,08,23,10,34,19.60
2017,08,23,10,35,19.80
2017,08,23,10,36,19.90
2017,08,23,10,37,19.80
2017,08,23,10,38,19.80
2017,08,23,10,39,19.70
2017,08,23,10,40,19.60
2017,08,23,10,41,19.60
2017,08,23,10,42,19.50
2017,08,23,10,43,19.50
2017,08,23,10,44,19.40
2017,08,23,10,45,19.50
2017,08,23,10,46,19.50
2017,08,23,10,47,19.50
2017,08,23,10,48,19.60
2017,08,23,10,49,19.50
2017,08,23,10,50,19.50
2017,08,23,10,51,19.40
2017,08,23,10,52,19.30
2017,08,23,10,53,19.30
2017,08,23,10,54,19.30
2017,08,23,10,55,19.30
2017,08,23,10,56,19.30
2017,08,23,10,57,19.30
2017,08,23,10,58,19.30
2017,08,23,10,59,19.40
2017,08,23,11,00,19.40
2017,08,23,11,01,19.50
2017,08,23,11,02,19.60
2017,08,23,11,03,19.70
2017,08,23,11,04,19.90
2017,08,23,11,05,19.90
2017,08,23,11,06,20.00
2017,08,23,11,07,20.00
2017,08,23,11,08,20.00
2017,08,23,11,09,20.00
2017,08,23,11,10,19.90
2017,08,23,11,11,19.80
2017,08,23,11,12,19.70
2017,08,23,11,13,19.70
2017,08,23,11,14,19.70
2017,08,23,11,15,19.80
2017,08,23,11,16,19.70
2017,08,23,11,17,19.60
2017,08,23,11,18,19.60
2017,08,23,11,19,19.70
2017,08,23,11,20,19.80
2017,08,23,11,21,19.90
2017,08,23,11,22,20.00
2017,08,23,11,23,20.10
2017,08,23,11,24,20.20
2017,08,23,11,25,20.20
2017,08,23,11,26,20.10
2017,08,23,11,27,20.00
2017,08,23,11,28,19.90
2017,08,23,11,29,19.90
2017,08,23,11,30,20.00
2017,08,23,11,31,20.10
2017,08,23,11,32,20.30
2017,08,23,11,33,20.40
2017,08,23,11,34,20.50
2017,08,23,11,35,20.60
2017,08,23,11,36,20.70
2017,08,23,11,37,20.70
2017,08,23,11,38,20.80
2017,08,23,11,39,20.90
2017,08,23,11,40,20.90
2017,08,23,11,41,21.00
2017,08,23,11,42,21.00
2017,08,23,11,43,21.00
2017,08,23,11,44,20.90
2017,08,23,11,45,20.80
2017,08,23,11,46,20.70
2017,08,23,11,47,20.70
2017,08,23,11,48,20.70
2017,08,23,11,49,20.80
2017,08,23,11,50,20.80
2017,08,23,11,51,20.80
2017,08,23,11,52,20.90
2017,08,23,11,53,20.90
2017,08,23,11,54,20.90
2017,08,23,11,55,20.90
2017,08,23,11,56,21.00
2017,08,23,11,57,21.10
2017,08,23,11,58,21.10
2017,08,23,11,59,21.10
2017,08,23,12,00,21.20
2017,08,23,12,01,21.30
2017,08,23,12,02,21.40
2017,08,23,12,03,21.40
2017,08,23,12,04,21.50
2017,08,23,12,05,21.50
2017,08,23,12,06,21.50
2017,08,23,12,07,21.50
2017,08,23,12,08,21.60
2017,08,23,12,09,21.60
2017,08,23,12,10,21.60
2017,08,23,12,11,21.70
2017,08,23,12,12,21.80
2017,08,23,12,13,21.80
2017,08,23,12,14,21.90
2017,08,23,12,15,21.90
2017,08,23,12,16,21.90
2017,08,23,12,17,21.90
2017,08,23,12,18,21.90
2017,08,23,12,19,22.00
2017,08,23,12,20,22.00
2017,08,23,12,21,22.10
2017,08,23,12,22,22.10
2017,08,23,12,23,22.10
2017,08,23,12,24,22.10
2017,08,23,12,25,22.10
2017,08,23,12,26,22.10
2017,08,23,12,27,22.10
2017,08,23,12,28,22.10
2017,08,23,12,29,22.00
2017,08,23,12,30,22.00
2017,08,23,12,31,21.90
2017,08,23,12,32,21.90
2017,08,23,12,33,21.90
2017,08,23,12,34,21.90
2017,08,23,12,35,21.90
2017,08,23,12,36,21.90
2017,08,23,12,37,21.90
2017,08,23,12,38,21.80
2017,08,23,12,39,21.80
2017,08,23,12,40,21.80
2017,08,23,12,41,21.80
2017,08,23,12,42,21.80
2017,08,23,12,43,21.80
2017,08,23,12,44,21.80
2017,08,23,12,45,21.90
2017,08,23,12,46,22.00
2017,08,23,12,47,22.10
2017,08,23,12,48,22.20
2017,08,23,12,49,22.30
2017,08,23,12,50,22.40
2017,08,23,12,51,22.50
2017,08,23,12,52,22.60
2017,08,23,12,53,22.80
2017,08,23,12,54,22.80
2017,08,23,12,55,22.90
2017,08,23,12,56,23.00
2017,08,23,12,57,23.00
2017,08,23,12,58,23.10
2017,08,23,12,59,23.30
2017,08,23,13,00,23.30
2017,08,23,13,01,23.30
2017,08,23,13,02,23.30
2017,08,23,13,03,23.20
2017,08,23,13,04,23.20
2017,08,23,13,05,23.20
2017,08,23,13,06,23.30
2017,08,23,13,07,23.40
2017,08,23,13,08,23.40
2017,08,23,13,09,23.40
2017,08,23,13,10,23.30
2017,08,23,13,11,23.40
2017,08,23,13,12,23.40
2017,08,23,13,13,23.50
2017,08,23,13,14,23.50
2017,08,23,13,15,23.60
2017,08,23,13,16,23.60
2017,08,23,13,17,23.60
2017,08,23,13,18,23.70
2017,08,23,13,19,23.70
2017,08,23,13,20,23.70
2017,08,23,13,21,23.60
2017,08,23,13,22,23.70
2017,08,23,13,23,23.70
2017,08,23,13,24,23.70
2017,08,23,13,25,23.60
2017,08,23,13,26,23.60
2017,08,23,13,27,23.50
2017,08,23,13,28,23.40
2017,08,23,13,29,23.30
2017,08,23,13,30,23.40
2017,08,23,13,31,23.50
2017,08,23,13,32,23.60
2017,08,23,13,33,23.60
2017,08,23,13,34,23.60
2017,08,23,13,35,23.60
2017,08,23,13,36,23.60
2017,08,23,13,37,23.50
2017,08,23,13,38,23.50
2017,08,23,13,39,23.40
2017,08,23,13,40,23.30
2017,08,23,13,41,23.30
2017,08,23,13,42,23.20
2017,08,23,13,43,23.20
2017,08,23,13,44,23.10
2017,08,23,13,45,22.90
2017,08,23,13,46,22.80
2017,08,23,13,47,22.80
2017,08,23,13,48,22.90
2017,08,23,13,49,22.90
2017,08,23,13,50,23.00
2017,08,23,13,51,23.00
2017,08,23,13,52,23.00
2017,08,23,13,53,23.00
2017,08,23,13,54,22.90
2017,08,23,13,55,22.90
2017,08,23,13,56,23.00
2017,08,23,13,57,22.90
2017,08,23,13,58,22.90
2017,08,23,13,59,22.90
2017,08,23,14,00,22.90
2017,08,23,14,01,22.80
2017,08,23,14,02,22.80
2017,08,23,14,03,22.80
2017,08,23,14,04,22.80
2017,08,23,14,05,22.70
2017,08,23,14,06,22.60
2017,08,23,14,07,22.50
2017,08,23,14,08,22.50
2017,08,23,14,09,22.60
2017,08,23,14,10,22.70
2017,08,23,14,11,22.80
2017,08,23,14,12,22.90
2017,08,23,14,13,22.90
2017,08,23,14,14,22.90
2017,08,23,14,15,22.80
2017,08,23,14,16,22.80
2017,08,23,14,17,22.90
2017,08,23,14,18,22.90
2017,08,23,14,19,23.00
2017,08,23,14,20,23.10
2017,08,23,14,21,23.10
2017,08,23,14,22,23.20
2017,08,23,14,23,23.30
2017,08,23,14,24,23.50
2017,08,23,14,25,23.50
2017,08,23,14,26,23.60
2017,08,23,14,27,23.50
2017,08,23,14,28,23.40
2017,08,23,14,29,23.30
2017,08,23,14,30,23.30
2017,08,23,14,31,23.30
2017,08,23,14,32,23.30
2017,08,23,14,33,23.30
2017,08,23,14,34,23.30
2017,08,23,14,35,23.30
2017,08,23,14,36,23.30
2017,08,23,14,37,23.40
2017,08,23,14,38,23.40
2017,08,23,14,39,23.40
2017,08,23,14,40,23.40
2017,08,23,14,41,23.40
2017,08,23,14,42,23.50
2017,08,23,14,43,23.60
2017,08,23,14,44,23.60
2017,08,23,14,45,23.50
2017,08,23,14,46,23.50
2017,08,23,14,47,23.50
2017,08,23,14,48,23.50
2017,08,23,14,49,23.50
2017,08,23,14,50,23.60
2017,08,23,14,51,23.60
2017,08,23,14,52,23.80
2017,08,23,14,53,23.80
2017,08,23,14,54,23.80
2017,08,23,14,55,23.70
2017,08,23,14,56,23.70
2017,08,23,14,57,23.60
2017,08,23,14,58,23.60
2017,08,23,14,59,23.50
2017,08,23,15,00,23.40
2017,08,23,15,01,23.50
2017,08,23,15,02,23.50
2017,08,23,15,03,23.60
2017,08,23,15,04,23.60
2017,08,23,15,05,23.70
2017,08,23,15,06,23.70
2017,08,23,15,07,23.70
2017,08,23,15,08,23.70
2017,08,23,15,09,23.70
2017,08,23,15,10,23.70
2017,08,23,15,11,23.70
2017,08,23,15,12,23.70
2017,08,23,15,13,23.60
2017,08,23,15,14,23.60
2017,08,23,15,15,23.50
2017,08,23,15,16,23.50
2017,08,23,15,17,23.40
2017,08,23,15,18,23.40
2017,08,23,15,19,23.30
2017,08,23,15,20,23.30
2017,08,23,15,21,23.30
2017,08,23,15,22,23.30
2017,08,23,15,23,23.30
2017,08,23,15,24,23.20
2017,08,23,15,25,23.20
2017,08,23,15,26,23.20
2017,08,23,15,27,23.20
2017,08,23,15,28,23.20
2017,08,23,15,29,23.10
2017,08,23,15,30,23.10
2017,08,23,15,31,23.10
2017,08,23,15,32,23.10
2017,08,23,15,33,23.10
2017,08,23,15,34,23.10
2017,08,23,15,35,23.10
2017,08,23,15,36,23.10
2017,08,23,15,37,23.10
2017,08,23,15,38,23.20
2017,08,23,15,39,23.30
2017,08,23,15,40,23.40
2017,08,23,15,41,23.50
2017,08,23,15,42,23.60
2017,08,23,15,43,23.70
2017,08,23,15,44,23.70
2017,08,23,15,45,23.80
2017,08,23,15,46,23.90
2017,08,23,15,47,23.90
2017,08,23,15,48,23.90
2017,08,23,15,49,23.80
2017,08,23,15,50,23.80
2017,08,23,15,51,23.80
2017,08,23,15,52,23.80
2017,08,23,15,53,23.70
2017,08,23,15,54,23.60
2017,08,23,15,55,23.60
2017,08,23,15,56,23.50
2017,08,23,15,57,23.50
2017,08,23,15,58,23.50
2017,08,23,15,59,23.50
2017,08,23,16,00,23.60
2017,08,23,16,01,23.60
2017,08,23,16,02,23.60
2017,08,23,16,03,23.60
2017,08,23,16,04,23.60
2017,08,23,16,05,23.50
2017,08,23,16,06,23.50
2017,08,23,16,07,23.40
2017,08,23,16,08,23.40
2017,08,23,16,09,23.30
2017,08,23,16,10,23.30
2017,08,23,16,11,23.30
2017,08,23,16,12,23.40
2017,08,23,16,13,23.40
2017,08,23,16,14,23.40
2017,08,23,16,15,23.40
2017,08,23,16,16,23.40
2017,08,23,16,17,23.40
2017,08,23,16,18,23.40
2017,08,23,16,19,23.30
2017,08,23,16,20,23.30
2017,08,23,16,21,23.30
2017,08,23,16,22,23.20
2017,08,23,16,23,23.20
2017,08,23,16,24,23.20
2017,08,23,16,25,23.10
2017,08,23,16,26,23.10
2017,08,23,16,27,23.10
2017,08,23,16,28,23.00
2017,08,23,16,29,23.00
2017,08,23,16,30,22.90
2017,08,23,16,31,22.90
2017,08,23,16,32,22.90
2017,08,23,16,33,22.80
2017,08,23,16,34,22.80
2017,08,23,16,35,22.80
2017,08,23,16,36,22.80
2017,08,23,16,37,22.80
2017,08,23,16,38,22.90
2017,08,23,16,39,22.90
2017,08,23,16,40,22.90
2017,08,23,16,41,22.90
2017,08,23,16,42,23.00
2017,08,23,16,43,23.00
2017,08,23,16,44,23.10
2017,08,23,16,45,23.10
2017,08,23,16,46,23.10
2017,08,23,16,47,23.10
2017,08,23,16,48,23.10
2017,08,23,16,49,23.10
2017,08,23,16,50,23.10
2017,08,23,16,51,23.10
2017,08,23,16,52,23.00
2017,08,23,16,53,23.00
2017,08,23,16,54,23.00
2017,08,23,16,55,22.90
2017,08,23,16,56,22.90
2017,08,23,16,57,22.90
2017,08,23,16,58,22.80
2017,08,23,16,59,22.80
2017,08,23,17,00,22.80
2017,08,23,17,01,22.80
2017,08,23,17,02,22.70
2017,08,23,17,03,22.60
2017,08,23,17,04,22.60
2017,08,23,17,05,22.60
2017,08,23,17,06,22.60
2017,08,23,17,07,22.60
2017,08,23,17,08,22.60
2017,08,23,17,09,22.60
2017,08,23,17,10,22.70
2017,08,23,17,11,22.70
2017,08,23,17,12,22.70
2017,08,23,17,13,22.70
2017,08,23,17,14,22.70
2017,08,23,17,15,22.70
2017,08,23,17,16,22.60
2017,08,23,17,17,22.60
2017,08,23,17,18,22.60
2017,08,23,17,19,22.60